カタログに戻る

COSMOS 2251 DEB

運用中LEO
NORAD 34790·DEBRIS·🇷🇺 Russia

打ち上げ Jun 16, 1993 から Plesetsk Cosmodrome

Loading…

次のパス (今後24時間)

TLE

最新Source: Space-Track

元期: Sep 14, 2026, 00:13 UTC

1 34790U 93036AAT 26257.00934907  .00000864  00000-0  35798-3 0  9991
2 34790  74.0515 107.7215 0099166 103.4306  46.3435 14.25373681904949

AllMySatでCOSMOS 2251 DEBをリアルタイム追跡

Download on the App Store